Home   Weather   48°45'N, 122°28'W   Past weeks
Flag for USA

Past Weather in 48°45'N, 122°28'W, USA — Yesterday and Last 2 Weeks

Now
55 °F

Rain. Overcast.


Feels Like: 55 °F
Forecast: 56 / 50 °F
Wind: 3 mph from Southwest

Location: Bellingham International Airport

Current Time: Oct 16, 2019 at 8:35:02 pm

Latest Report: Oct 16, 2019 at 7:53 pm


Visibility: 4 mi

Pressure: 29.62 "Hg

Humidity: 83%

Dew Point: 50 °F

Location of 48°45'N, 122°28'WLocation

Past Weather in 48°45'N, 122°28'W — Graph

°F

48°45'N, 122°28'W Temperature Yesterday

Maximum temperature yesterday: 60 °F (at 8:53 pm)
Minimum temperature yesterday: 43 °F (at 2:53 am)
Average temperature yesterday: 51 °F

High & Low Weather Summary for the Past Weeks

 TemperatureHumidityPressure
High63 °F (Oct 16, 1:53 pm)89% (Oct 6, 6:37 am)30.51 "Hg (Oct 6, 6:37 am)
Low30 °F (Oct 10, 4:53 am)30% (Oct 9, 12:53 pm)29.59 "Hg (Oct 16, 2:53 pm)
Average50 °F73%30.11 "Hg
* Reported Oct 1 7:53 pm — Oct 16 7:01 pm, 48°45'N, 122°28'W. Weather by CustomWeather, © 2019

Note: Actual official high and low records may vary slightly from our data, if they occured in-between our weather recording intervals... More about our weather records

Advertising

48°45'N, 122°28'W Weather History for the Previous 24 Hours

Scroll right to see more
 ConditionsComfort  
Time TempWeatherWind HumidityBarometerVisibility
7:01 pm
Wed, Oct 16
55 °FLight rain. Overcast.6 mph83%29.60 "Hg6 mi
5:53 pm56 °FLight rain. Mostly cloudy.15 mph81%29.60 "Hg8 mi
4:53 pm58 °FLight rain. Overcast.13 mph72%29.61 "Hg5 mi
3:53 pm61 °FMostly cloudy.20 mph62%29.59 "Hg10 mi
2:53 pm63 °FMostly cloudy.23 mph60%29.59 "Hg10 mi
1:53 pm63 °FPartly sunny.26 mph58%29.62 "Hg10 mi
12:53 pm61 °FOvercast.17 mph60%29.65 "Hg10 mi
11:53 am60 °FOvercast.16 mph60%29.69 "Hg10 mi
10:53 am61 °FPartly sunny.14 mph56%29.69 "Hg10 mi
9:53 am61 °FPartly sunny.23 mph56%29.70 "Hg10 mi
8:53 am60 °FMostly cloudy.12 mph47%29.73 "Hg10 mi
7:53 am59 °FOvercast.15 mph54%29.73 "Hg10 mi
6:53 am55 °FLight rain. Overcast.5 mph69%29.75 "Hg10 mi
5:53 am56 °FOvercast.13 mph65%29.75 "Hg10 mi
4:53 am55 °FLight rain. Overcast.15 mph62%29.78 "Hg10 mi
3:53 am52 °FLight rain. Overcast.5 mph80%29.82 "Hg10 mi
2:53 am51 °FLight rain. Overcast.5 mph83%29.83 "Hg10 mi
1:53 am52 °FLight rain. Overcast.3 mph80%29.85 "Hg10 mi
12:53 am52 °FOvercast.6 mph80%29.86 "Hg10 mi
11:53 pm
Tue, Oct 15
54 °FOvercast.8 mph72%29.88 "Hg10 mi
10:53 pm56 °FLight rain. Mostly cloudy.6 mph65%29.90 "Hg9 mi
9:53 pm59 °FLight rain. Mostly cloudy.10 mph51%29.91 "Hg10 mi
8:53 pm60 °FOvercast.8 mph49%29.92 "Hg10 mi
Weather by CustomWeather, © 2019

See weather overview